This demonstration page uses our WeatherBlox Daily Observations layout. Learn more.

Left ArrowRight Arrow

Hourly Observations for April 3, 2015

Temp ( °F °C ) Dew Point ( °F °C ) Humidity (%) Winds ( mph kmh ) Pressure ( in mb ) Visibility ( mi km ) Precip ( " mm )
12:51 am 00:51 Clear 65 18.3 25 -3.9 22 22 NW 18 30 29.87 1012 10 16 0.00 0.00
1:51 am 01:51 Clear 62 16.7 26 -3.3 25 25 NW 13 20 29.89 1012 10 16 0.00 0.00
2:51 am 02:51 Clear 58 14.4 26 -3.3 29 29 NNW 6 9 29.90 1013 10 16 0.00 0.00
3:51 am 03:51 Clear 56 13.3 26 -3.3 32 32 N 7 11 29.91 1013 10 16 0.00 0.00
4:51 am 04:51 Clear 55 12.8 26 -3.3 33 33 Calm 29.93 1014 10 16 0.00 0.00
5:51 am 05:51 Clear 49 9.4 25 -3.9 39 39 E 5 7 29.97 1015 10 16 0.00 0.00
6:51 am 06:51 Sunny 53 11.7 26 -3.3 35 35 S 5 7 30.00 1016 10 16 0.00 0.00
7:51 am 07:51 Sunny 58 14.4 26 -3.3 29 29 W 3 6 30.02 1017 10 16 0.00 0.00
8:51 am 08:51 Sunny 62 16.7 23 -5 22 22 W 5 7 30.04 1017 10 16 0.00 0.00
9:51 am 09:51 Sunny 67 19.4 22 -5.6 18 18 VRB 3 6 30.04 1017 10 16 0.00 0.00
10:51 am 10:51 Sunny 70 21.1 21 -6.1 16 16 WSW 5 7 30.02 1017 10 16 0.00 0.00
11:51 am 11:51 Sunny 75 23.9 22 -5.6 14 14 Calm 29.99 1016 10 16 0.00 0.00
12:51 pm 12:51 Sunny 76 24.4 22 -5.6 13 13 SSE 6 9 29.96 1015 10 16 0.00 0.00
1:51 pm 13:51 Sunny 77 25 21 -6.1 12 12 VRB 5 7 29.93 1014 10 16 0.00 0.00
2:51 pm 14:51 Sunny 77 25 19 -7.2 11 11 VRB 5 7 29.92 1013 10 16 0.00 0.00
3:51 pm 15:51 Sunny 79 26.1 19 -7.2 10 10 VRB 3 6 29.90 1013 10 16 0.00 0.00
4:51 pm 16:51 Sunny 80 26.7 20 -6.7 10 10 Calm 29.89 1012 10 16 0.00 0.00
5:51 pm 17:51 Sunny 78 25.6 21 -6.1 12 12 WNW 5 7 29.90 1013 10 16 0.00 0.00
6:51 pm 18:51 Clear 74 23.3 22 -5.6 14 14 NW 5 7 29.91 1013 10 16 0.00 0.00
7:51 pm 19:51 Clear 69 20.6 23 -5 17 17 NNW 7 11 29.92 1013 10 16 0.00 0.00
8:51 pm 20:51 Clear 66 18.9 22 -5.6 19 19 NNW 7 11 29.93 1014 10 16 0.00 0.00
9:51 pm 21:51 Clear 61 16.1 22 -5.6 22 22 NNW 5 7 29.94 1014 10 16 0.00 0.00
10:51 pm 22:51 Clear 59 15 22 -5.6 24 24 SE 3 6 29.94 1014 10 16 0.00 0.00
11:51 pm 23:51 Clear 55 12.8 22 -5.6 28 28 Calm 29.95 1014 10 16 0.00 0.00

Powered by AerisWeather